This is the latest recevied weather packets stored in our database for station/object LY3FF-10. If no packets are shown the sender has not sent any weather packets the latest 10 day(s).
| Time | Temp. | Humidity | Pressure | Rain* | Wind** | Luminosity | Snow |
|---|---|---|---|---|---|---|---|
| 1787658004 | 23.33° C | 65% | 999.2 hPa | - | - | - | - |
| 1787657144 | 28.89° C | 66% | 999.2 hPa | - | - | - | - |
| 1787656249 | 32.22° C | 66% | 999.2 hPa | - | - | - | - |
| 1787655350 | 19.44° C | 64% | 999.1 hPa | - | - | - | - |
| 1787654510 | 18.33° C | 70% | 999.2 hPa | - | - | - | - |
| 1787653760 | 30.56° C | 69% | 999.2 hPa | - | - | - | - |
| 1787653035 | 17.22° C | 73% | 999.2 hPa | - | - | - | - |
| 1787652146 | 21.11° C | 76% | 999.2 hPa | - | - | - | - |
| 1787651355 | 17.78° C | 75% | 999.2 hPa | - | - | - | - |
| 1787650610 | 17.22° C | 77% | 999.3 hPa | - | - | - | - |
| 1787649734 | 16.67° C | 79% | 999.4 hPa | - | - | - | - |
| 1787649007 | 19.44° C | 79% | 999.3 hPa | - | - | - | - |
| 1787648204 | 16.11° C | 80% | 999.3 hPa | - | - | - | - |
| 1787647465 | 15.56° C | 82% | 999.3 hPa | - | - | - | - |
| 1787646735 | 15° C | 82% | 999.3 hPa | - | - | - | - |
| 1787645928 | 15° C | 80% | 999.4 hPa | - | - | - | - |
| 1787645155 | 15° C | 81% | 999.3 hPa | - | - | - | - |
| 1787644355 | 15° C | 82% | 999.2 hPa | - | - | - | - |
| 1787643504 | 15° C | 82% | 999.2 hPa | - | - | - | - |
| 1787642770 | 14.44° C | 82% | 999 hPa | - | - | - | - |
| 1787641990 | 15° C | 81% | 998.8 hPa | - | - | - | - |
| 1787641205 | 14.44° C | 82% | 998.6 hPa | - | - | - | - |
| 1787640344 | 13.89° C | 83% | 998.7 hPa | - | - | - | - |
| 1787639500 | 13.89° C | 84% | 998.8 hPa | - | - | - | - |
| 1787638695 | 13.89° C | 85% | 998.7 hPa | - | - | - | - |
* Rain since midnight (hover to see other rain measurements)
** Current wind speed in m/s (hover to see current wind gust speed)